Regional Weather Roundup
Issued by NWS

Home | Current Version | Previous Version | Graphics & Text | Print | Product List | Glossary On
Versions: 1 2 3 4 5 6 7 8 9 10 11 12 13 14 15 16 17 18 19 20 21 22 23 24 25 26 27 28 29 30 31 32 33 34 35 36 37 38 39 40 41 42 43 44 45 46 47 48 49 50
468
ASUS43 KBIS 271502
RWRND

NORTH DAKOTA REGIONAL WEATHER ROUNDUP
NATIONAL WEATHER SERVICE BISMARCK ND
1000 AM CDT TUE SEP 27 2016

NOTE: "FAIR" INDICATES FEW OR NO CLOUDS BELOW 12,000 FEET WITH NO
SIGNIFICANT WEATHER AND/OR OBSTRUCTIONS TO VISIBILITY.


NDZ001>003-009>011-017-271600-
NORTHWEST NORTH DAKOTA

CITY           SKY/WX    TMP DP  RH WIND       PRES   REMARKS
WILLISTON      SUNNY     50  44  80 CALM      30.00F
MINOT          SUNNY     53  40  61 CALM      29.99S
MINOT AFB      SUNNY     54  40  59 NW2       29.99S
$$

NDZ018>021-031>035-040>046-271600-
SOUTHWEST NORTH DAKOTA

CITY           SKY/WX    TMP DP  RH WIND       PRES   REMARKS
BISMARCK       SUNNY     51  41  68 CALM      30.02F
DICKINSON      SUNNY     56  47  71 W3        30.01S
GARRISON         N/A     54  41  61 CALM      30.00F
HETTINGER ARPT SUNNY     56  47  71 CALM      30.05R
$$

NDZ004>008-012>016-024-026-027-054-271600-
NORTHEAST NORTH DAKOTA

CITY           SKY/WX    TMP DP  RH WIND       PRES   REMARKS
GRAND FORKS    MOSUNNY   51  42  71 NW15      29.92R
GRND FRKS AFB  SUNNY     51  41  68 N14G23    29.93R
DEVILS LAKE    SUNNY     51  37  58 NW15      29.96F
$$

NDZ022-023-025-028>030-036>039-047>053-271600-
SOUTHEAST NORTH DAKOTA

CITY           SKY/WX    TMP DP  RH WIND       PRES   REMARKS
FARGO          SUNNY     53  40  61 NW14      29.91F
JAMESTOWN      SUNNY     54  40  59 NW10      29.96S
$$





USA.gov is the U.S. government's official web portal to all federal, state and local government web resources and services.